Date String (YYYY-MM-DD hh:mm:ss) UTC,Instrument flags,Ambient pressure (hPa),Sample flow (lpm),Bypass flow (lpm),Sample temperature (°C),Ambient temperature (°C),ASC tube jacket temperature (°C),LED temperature (°C),Box temperature (°C),Sample RH (%),Span deviation,Mass concentration (μg/m³),Mass concentration (μg/m³),Mass concentration (μg/m³)
DateTimeUTC,F1_M11,P_M11,Q1_M11,Q2_M11,T1_M11,T2_M11,T3_M11,T4_M11,T5_M11,U1_M11,ZSPAN_M11,X2_M11,X0_M11,X1_M11
2022-01-25 07:00:00,,0823.4,4.99,0.00,22.4,21.7,00.0,31.4,24.2,11.0,0000.0,0002.78,0006.76,0002.13
2022-01-25 07:01:00,,0823.4,4.99,0.00,22.4,21.7,00.0,31.4,24.2,11.0,0000.0,0002.83,0007.54,0002.14
2022-01-25 07:02:00,,0823.4,5.02,0.00,22.4,21.7,00.0,31.4,24.2,11.0,0000.0,0002.91,0007.66,0002.15
2022-01-25 07:03:00,,0823.4,4.99,0.00,22.4,21.7,00.0,31.4,24.2,10.9,0000.0,0002.95,0007.46,0002.15
2022-01-25 07:04:00,,0823.4,4.99,0.00,22.4,21.7,00.0,31.4,24.2,11.0,0000.0,0002.94,0007.30,0002.14
2022-01-25 07:05:00,,0823.4,4.99,0.00,22.4,21.7,00.0,31.4,24.2,11.0,0000.0,0002.98,0007.51,0002.14
2022-01-25 07:06:00,,0823.4,5.00,0.00,22.4,21.7,00.0,31.4,24.2,11.0,0000.0,0003.02,0007.74,0002.16
2022-01-25 07:07:00,,0823.4,5.01,0.00,22.4,21.7,00.0,31.4,24.2,11.0,0000.0,0002.98,0008.35,0002.16
2022-01-25 07:08:00,,0823.4,5.00,0.00,22.4,21.7,00.0,31.3,24.1,11.0,0000.0,0003.00,0009.19,0002.17
2022-01-25 07:09:00,,0823.4,5.00,0.00,22.4,21.7,00.0,31.3,24.1,11.1,0000.0,0002.96,0009.54,0002.18
2022-01-25 07:10:00,,0823.3,5.00,0.00,22.4,21.7,00.0,31.3,24.1,11.0,0000.0,0002.98,0009.71,0002.20
2022-01-25 07:11:00,,0823.3,5.00,0.00,22.4,21.7,00.0,31.3,24.1,11.0,0000.0,0003.02,0009.53,0002.23
2022-01-25 07:12:00,,0823.4,5.00,0.00,22.4,21.7,00.0,31.3,24.1,11.0,0000.0,0003.03,0009.13,0002.24
2022-01-25 07:13:00,,0823.3,4.99,0.00,22.4,21.7,00.0,31.3,24.1,11.0,0000.0,0003.01,0009.62,0002.24
2022-01-25 07:14:00,,0823.3,4.99,0.00,22.4,21.7,00.0,31.3,24.1,11.0,0000.0,0003.03,0009.59,0002.25
2022-01-25 07:15:00,,0823.3,5.00,0.00,22.4,21.7,00.0,31.3,24.1,11.0,0000.0,0003.08,0009.56,0002.28
2022-01-25 07:16:00,,0823.3,5.00,0.00,22.3,21.7,00.0,31.3,24.1,11.0,0000.0,0003.07,0009.64,0002.29
2022-01-25 07:17:00,,0823.3,5.00,0.00,22.4,21.8,00.0,31.3,24.1,11.0,0000.0,0003.03,0009.45,0002.29
2022-01-25 07:18:00,,0823.4,5.01,0.00,22.4,22.4,00.0,31.4,24.3,10.8,0000.0,0003.06,0008.84,0002.31
2022-01-25 07:19:00,,0823.4,5.00,0.00,22.6,23.0,00.0,31.4,24.6,10.6,0000.0,0003.06,0008.38,0002.33
2022-01-25 07:20:00,,0823.5,5.02,0.00,22.7,23.1,00.0,31.4,24.7,10.5,0000.0,0003.13,0008.09,0002.36
2022-01-25 07:21:00,,0823.4,5.00,0.00,22.7,23.0,00.0,31.5,24.7,10.5,0000.0,0003.16,0008.47,0002.40
2022-01-25 07:22:00,,0823.4,4.99,0.00,22.7,22.8,00.0,31.5,24.7,10.6,0000.0,0003.21,0009.46,0002.43
2022-01-25 07:23:00,,0823.4,5.00,0.00,22.7,22.7,00.0,31.5,24.6,10.5,0000.0,0003.25,0010.23,0002.47
2022-01-25 07:24:00,,0823.3,5.00,0.00,22.7,22.6,00.0,31.5,24.6,10.7,0000.0,0003.27,0009.70,0002.50
2022-01-25 07:25:00,,0823.3,5.00,0.00,22.7,22.5,00.0,31.5,24.6,11.0,0000.0,0003.25,0009.48,0002.49
2022-01-25 07:26:00,,0823.3,5.00,0.00,22.7,22.4,00.0,31.5,24.6,11.2,0000.0,0003.24,0009.42,0002.46
2022-01-25 07:27:00,,0823.3,5.01,0.00,22.7,22.3,00.0,31.5,24.6,11.2,0000.0,0003.22,0009.15,0002.44
2022-01-25 07:28:00,,0823.3,4.99,0.00,22.7,22.2,00.0,31.5,24.5,11.1,0000.0,0003.21,0009.17,0002.42
2022-01-25 07:29:00,,0823.3,5.00,0.00,22.7,22.2,00.0,31.6,24.5,11.1,0000.0,0003.20,0009.19,0002.39
2022-01-25 07:30:00,,0823.4,4.99,0.00,22.7,22.2,00.0,31.6,24.5,11.2,0000.0,0003.19,0008.98,0002.36
2022-01-25 07:31:00,,0823.4,5.00,0.00,22.7,22.1,00.0,31.6,24.5,11.2,0000.0,0003.16,0008.93,0002.34
2022-01-25 07:32:00,,0823.3,5.02,0.00,22.7,22.1,00.0,31.6,24.5,11.2,0000.0,0003.12,0008.77,0002.30
2022-01-25 07:33:00,,0823.3,4.99,0.00,22.7,22.0,00.0,31.6,24.5,11.3,0000.0,0003.02,0007.91,0002.27
2022-01-25 07:34:00,,0823.3,4.99,0.00,22.7,22.0,00.0,31.6,24.5,11.3,0000.0,0002.92,0007.49,0002.21
2022-01-25 07:35:00,,0823.4,5.02,0.00,22.7,22.0,00.0,31.6,24.4,11.3,0000.0,0002.85,0007.41,0002.16
2022-01-25 07:36:00,,0823.4,4.99,0.00,22.7,22.0,00.0,31.6,24.4,11.4,0000.0,0002.83,0007.69,0002.15
2022-01-25 07:37:00,,0823.4,4.99,0.00,22.6,22.0,00.0,31.6,24.4,11.5,0000.0,0002.80,0007.97,0002.15
2022-01-25 07:38:00,,0823.4,4.99,0.00,22.6,22.0,00.0,31.6,24.4,11.7,0000.0,0002.85,0008.25,0002.15
2022-01-25 07:39:00,,0823.3,5.00,0.00,22.6,22.0,00.0,31.6,24.4,11.8,0000.0,0002.89,0008.28,0002.13
2022-01-25 07:40:00,,0823.4,5.01,0.00,22.6,22.0,00.0,31.6,24.4,11.8,0000.0,0002.91,0008.20,0002.11
2022-01-25 07:41:00,,0823.4,5.00,0.00,22.6,22.0,00.0,31.6,24.3,11.9,0000.0,0002.90,0007.94,0002.10
2022-01-25 07:42:00,,0823.4,5.00,0.00,22.6,21.9,00.0,31.5,24.3,12.0,0000.0,0002.89,0007.91,0002.09
2022-01-25 07:43:00,,0823.4,5.00,0.00,22.6,21.9,00.0,31.5,24.3,12.0,0000.0,0002.88,0007.91,0002.05
2022-01-25 07:44:00,,0823.4,4.99,0.00,22.6,21.9,00.0,31.5,24.3,12.0,0000.0,0002.86,0008.02,0002.01
2022-01-25 07:45:00,,0823.4,5.01,0.00,22.6,21.9,00.0,31.5,24.3,12.0,0000.0,0002.84,0008.92,0002.00
2022-01-25 07:46:00,,0823.4,5.00,0.00,22.6,21.9,00.0,31.5,24.3,12.0,0000.0,0002.81,0009.36,0001.97
2022-01-25 07:47:00,,0823.4,4.99,0.00,22.5,21.9,00.0,31.5,24.3,12.0,0000.0,0002.78,0009.05,0001.94
2022-01-25 07:48:00,,0823.4,5.02,0.00,22.5,21.9,00.0,31.5,24.3,12.1,0000.0,0002.77,0008.75,0001.92
2022-01-25 07:49:00,,0823.4,4.99,0.00,22.5,21.9,00.0,31.5,24.3,12.2,0000.0,0002.69,0008.86,0001.91
2022-01-25 07:50:00,,0823.4,5.00,0.00,22.5,21.9,00.0,31.5,24.3,12.2,0000.0,0002.63,0008.87,0001.90
2022-01-25 07:51:00,,0823.4,5.00,0.00,22.5,21.8,00.0,31.5,24.3,12.3,0000.0,0002.55,0009.30,0001.88
2022-01-25 07:52:00,,0823.3,5.00,0.00,22.5,21.8,00.0,31.5,24.3,12.4,0000.0,0002.50,0009.41,0001.84
2022-01-25 07:53:00,,0823.3,5.01,0.00,22.5,21.8,00.0,31.5,24.3,12.3,0000.0,0002.43,0009.92,0001.78
2022-01-25 07:54:00,,0823.3,5.00,0.00,22.5,21.8,00.0,31.5,24.3,12.3,0000.0,0002.38,0009.65,0001.76
2022-01-25 07:55:00,,0823.3,5.00,0.00,22.5,21.8,00.0,31.5,24.3,12.4,0000.0,0002.30,0009.17,0001.73
2022-01-25 07:56:00,,0823.4,5.00,0.00,22.5,21.8,00.0,31.5,24.3,12.4,0000.0,0002.22,0007.79,0001.70
2022-01-25 07:57:00,,0823.4,5.00,0.00,22.5,21.8,00.0,31.5,24.3,12.3,0000.0,0002.18,0007.27,0001.66
2022-01-25 07:58:00,,0823.4,5.01,0.00,22.5,21.8,00.0,31.5,24.3,12.3,0000.0,0002.16,0007.29,0001.64
2022-01-25 07:59:00,,0823.4,4.99,0.00,22.5,21.8,00.0,31.5,24.3,12.4,0000.0,0002.12,0007.77,0001.61
